Weather in Krasnoyarsk

Russia / Krasnoyarsk Krai     56˚00′38″N   92˚51′09″E
temp.,
°C
wind,
m/s
gust,
m/s
humid.,
%
clouds,
%
prec.,
mm/h
press.,
hPa
HPBL,
m
2 december, wed
wed201:00−12˚wsw299198 0.0 1046398
04:00−14˚sw2591100 0.0 1046175
07:00−14˚sw249399 0.0 1047172
10:00−13˚sw259398 0.1 1047263
13:00−11˚sw258398 0.2 1047521
16:00−12˚sw229197 0.0 104628
19:00−14˚ssw229395 0.0 104629
22:00−15˚ssw229344 0.0 104627
3 december, thu
thu301:00−15˚ssw229322 0.0 104531
04:00−15˚ssw22930 0.0 104436
07:00−15˚ssw22920 0.0 104340
10:00−15˚ssw33925 0.0 104274
13:00−10˚sw388311 0.0 1040323
16:00−12˚sw348824 0.0 103981
19:00−14˚ssw339049 0.0 103977
22:00−15˚sw3391100 0.0 103858
4 december, fri
fri401:00−17˚ssw239199 0.0 103847
04:00−17˚ssw229163 0.0 103636
07:00−18˚ssw229132 0.0 103539
10:00−17˚sw22910 0.0 103556
13:00−13˚sw25830 0.0 1033295
16:00−15˚sw22910 0.0 103328
19:00−16˚sw239140 0.0 1034116
22:00−15˚sw2395100 0.3 1035204
5 december, sat
sat501:00−16˚sw129496 0.4 103649
04:00−17˚sw129593 0.0 103831
07:00−18˚ssw229592 0.1 103925
10:00−19˚ssw229361 0.0 104043
13:00−15˚sw128530 0.0 1040237
16:00−16˚ssw22920 0.0 104022
19:00−18˚ssw22930 0.0 104030
22:00−18˚sw22940 0.0 103940
6 december, sun
sun601:00−18˚ssw349335 0.0 103892
04:00−16˚sw3590100 0.0 1037199
07:00−15˚sw31287100 0.0 1035359
10:00−14˚sw41384100 0.0 1034447
13:00−12˚sw51386100 0.1 1034516
16:00−12˚sw51385100 0.1 1034574
19:00−12˚sw41385100 0.1 1035683
22:00−15˚sw389199 0.0 1036249